DMSP 5D-2 F11 DEB, 28304

Orbit data source: Space-Track

DMSP 5D-2 F11 DEB, 28304 is space debris in SSO originally from a launch on Thu, 28 Nov 1991 UTC launched from the Air Force Western Test Range (AFWTR). Debris objects in space refer to the collection of defunct objects orbiting the Earth. Examples of debris include non-operational satellites, rocket bodies, and fragments generated from explosions, collisions, or faulty payload assembly.

Loading next visibility...
Identifier
28304, 1991-082R
Orbit
SSO
Country
Flag of USUS
Related business
Manufacturer
Unknown
Mission
Spacecraft
Bus & Motor
Unknown
Mass
Unknown
Launch date (UTC)
1991-11-28 (35 years ago)
Launch vehicle
Unknown
Launch site
Air Force Western Test Range (AFWTR)
Object type
Payload
Rocket body
Debris
Shape & HBR
Unknown shape, 0.2 m
Radar Cross Section
Medium (>0.1 m² and <1 m²)

Expand to show TLE details & history
Last TLE update: 14 hours ago

TLE from 14 hours ago
0 DMSP 5D-2 F11 DEB
1 28304U 91082R   26208.57250906  .00000103  00000-0  72376-4 0  9992
2 28304  98.6908 235.4761 0012899 164.1468 347.9347 14.17048707150895
Epoch: 2026-07-27T13:44Z
TLE epoch observation values (Epoch: 2026-07-27T13:44:24.782Z)
Latitude
27.64268°
Longitude
-91.31384°
Altitude
829.633 km
Speed
7.445 km/s
True Right ascension
04h 00m 10s
True Declination
27° 30' 11"
Sunlit
Object was in daylight at epoch
Visualization orbit readout
Latitude
Unknown
Longitude
Unknown
Altitude
Unknown
Speed
Unknown
Apparent Right ascension
Unknown
Apparent Declination
Unknown
Sunlit
N/A
Visualization observer readout
Local Sidereal Time
17:13:19
Azimuth
Unknown
Elevation
Unknown
Doppler factor
Unknown
Orbital elements
Apogee altitude
841.814 km
Perigee altitude
823.212 km
Semi-major axis
7,210.65 km
Eccentricity
0.00129
Inclination
98.6908°
RAAN
235.4761°
Arg. of periapsis
164.1468°
True anomaly
347.90375°
Mean anomaly
347.9347°
Eccentric anomaly
347.91923°
Mean motion
3.54472 °/min
Orbital period
101.56 mins
BSTAR
0.000072376
Loading maneuver chart data...
Computing Atmospheric mass density...

Documentation

Showing up to 5 results
|